Regional Weather Roundup
Issued by NWS

Home | Current Version | Previous Version | Graphics & Text | Print | Product List | Glossary On
Versions: 1 2 3 4 5 6 7 8 9 10 11 12 13 14 15 16 17 18 19 20 21 22 23 24 25 26 27
000
ASUS45 KSLC 220410
RWRUT

UTAH REGIONAL WEATHER ROUNDUP
NATIONAL WEATHER SERVICE SALT LAKE CITY UT
1000 PM MDT SUN MAY 21 2017

UTZ001>011-023>025-220500-

NORTHERN UTAH

CITY           SKY/WX    TMP DP  RH WIND       PRES   REMARKS
BRIGHAM CITY   CLEAR     59  48  67 S3        30.22R
HILL AFB       CLEAR     55  46  71 SE7       30.23R
LOGAN          CLEAR     59  43  55 CALM      30.21R
OGDEN          CLEAR     55  47  74 SW3       30.22R
SALT LAKE CITY PTCLDY    59  47  64 S5        30.22R
TOOELE VALLEY  CLEAR     48  45  87 SE6       30.23S
WENDOVER       CLEAR     62  43  49 CALM      30.22R
HEBER CITY     CLOUDY    48  45  87 S3        30.27S
WEST JORDAN    MOCLDY    58  52  80 CALM      30.24R

$$

UTZ011>015-024>027-220500-

CENTRAL/NORTHEAST UTAH

CITY           SKY/WX    TMP DP  RH WIND       PRES   REMARKS
PROVO AIRPORT  PTCLDY    55  43  63 N6        30.24R
MOAB/CANYONLAN PTCLDY    53  45  74 W3        30.17R
DELTA          CLEAR     55  41  58 NE8       30.22R
PRICE          CLEAR     46  43  89 N7        30.24R
ROOSEVELT      CLOUDY    54  37  54 NW5       30.26R
VERNAL         CLOUDY    51  39  63 N9        30.25R

$$

UTZ013>016-019>022-027-220500-

SOUTHERN UTAH

CITY           SKY/WX    TMP DP  RH WIND       PRES   REMARKS
BRYCE CANYON   CLEAR     45  33  63 NW9       30.30R
CEDAR CITY     CLEAR     57  37  47 SE7       30.19R
MILFORD        CLEAR     59  37  44 N9        30.19R
ST GEORGE      MOCLDY    77  39  25 NE17      30.01R
HANKSVILLE     CLEAR     55  39  54 NE5       30.20R
BLANDING       MOCLDY    56  32  40 NW13      30.26R

$$

REGIONAL REPORTS     COLORADO/ARIZONA

CITY           SKY/WX    TMP DP  RH WIND       PRES   REMARKS
CRAIG, CO      LGT RAIN  49  40  71 CALM      30.27R
GRAND JUNCTION CLOUDY    57  41  55 N8        30.20R
RIFLE, CO      CLOUDY    56  39  53 NW5       30.23R
MONTROSE, CO   CLOUDY    54  40  59 SE7       30.25R
CORTEZ, CO     CLOUDY    53  40  61 E6        30.19F
COLORADO CITY    N/A     64  36  34 NE12      30.16R
PAGE, AZ       MOCLDY    72  34  24 CALM      30.09R
GRAND CANYON   PTCLDY    49  31  49 CALM      30.23R
KINGMAN, AZ    PTCLDY    70  24  17 MISG      29.99R
FLAGSTAFF, AZ  PTCLDY    52  25  35 CALM      30.23R

$$

REGIONAL REPORTS    NEVADA/IDAHO/WYOMING

CITY           SKY/WX    TMP DP  RH WIND       PRES   REMARKS
LAS VEGAS, NV  MOCLDY    88  21   8 NW6       29.88R
ELY, NY        CLEAR     55  36  48 N13       30.25R
ELKO, NV       CLEAR     59  38  45 NE6       30.22R
POCATELLO, ID  MOCLDY    54  39  57 SW6       30.22R
BURLEY, ID     CLEAR     57  48  72 SW6       30.20R
FORT BRIDGER,    N/A     47  38  71 SE8       30.33R
EVANSTON, WY   CLEAR     47  36  65 W6        30.30R
ROCK SPRINGS,  CLOUDY    46  36  68 S6        30.30R
KEMMERER, WY     N/A     43  36  75 E9G17     30.32R

$$




USA.gov is the U.S. government's official web portal to all federal, state and local government web resources and services.